Location: Amherst
(42.3800°N, 72.5240°W)
Time: 10:16:32
(UTC-04:00)

ISS - Pass Details

Date: 27 May 2021
Orbit: 417 x 422 km, 51.6° (Epoch: 14 June)

Event Time Altitude Azimuth Distance (km) Brightness Sun altitude
Rises 20:50:54 0° 304° (NW) 2,365 2.9 -6.1°
Reaches altitude 10° 20:53:23 10° 323° (NW) 1,501 0.6 -6.5°
Maximum altitude 20:55:57 20° 12° (NNE) 1,042 -1.4 -6.8°
Drops below altitude 10° 20:58:31 10° 62° (ENE) 1,501 -1.2 -7.2°
Enters shadow 21:00:48 - 79° (E) 2,288 -0.4 -7.5°
